Location: Christchurch
(43.5330°S, 172.6330°E)
Time: 15:45:27
(UTC+13:00)

Gbstr 26 Del rocket - Pass Details

Date: 24 January 2019
Orbit: 493 x 1264 km, 51.8° (Epoch: 16 February)

Event Time Altitude Azimuth Distance (km) Brightness Sun altitude
Rises 23:39:26 0° 239° (WSW) 2,757 7.4 -21.3°
Reaches altitude 10° 23:41:54 10° 230° (SW) 1,793 6.4 -21.5°
Maximum altitude 23:45:35 36° 161° (SSE) 821 4.0 -21.8°
Enters shadow 23:46:53 27° 119° (ESE) 988 4.1 -22.0°
